Location: The Saddle
(36.8333°N, 80.3417°W)
Time: 01:00:56
(UTC-05:00)

A-11 Canister half - Pass Details

Date: 14 December 2023
Orbit: 1526 x 1682 km, 47.3° (Epoch: 01 March)

Event Time Altitude Azimuth Distance (km) Brightness Sun altitude
Rises 21:58:00 0° 300° (WNW) 4,936 12.1 -57.4°
Reaches altitude 10° 22:01:13 10° 303° (WNW) 3,942 11.5 -58.0°
Enters shadow 22:03:44 20° 306° (NW) 3,191 10.8 -58.5°
